KX4O-13 Weather Reports


time (UTC)temp
F
wind
direction
speed
knots
gust
knots
rain 1hr
in
rain 24hr
in
rain mn
in
humidity
%
barometer
mb
20260507174549 58 123 3.5 7.0 0.00 0.32 0.17 63 1010.2
20260507174049 59 150 5.2 7.8 0.00 0.32 0.17 60 1010.5
20260507173549 58 176 3.5 7.8 0.00 0.32 0.17 61 1010.6
20260507173049 59 180 1.7 7.0 0.00 0.32 0.17 63 1010.6
20260507172549 57 134 2.6 4.3 0.00 0.32 0.17 60 1010.4
20260507172049 58 98 2.6 7.0 0.00 0.32 0.17 58 1010.8
20260507171549 60 128 2.6 7.8 0.00 0.32 0.17 59 1010.8
20260507171051 60 140 4.3 6.1 0.00 0.32 0.17 59 1010.9
20260507170549 60 96 3.5 8.7 0.00 0.32 0.17 67 1011.1
20260507170049 59 150 1.7 6.1 0.00 0.32 0.17 64 1011.0
20260507165549 59 90 2.6 5.2 0.00 0.32 0.17 64 1011.1
20260507165051 57 125 2.6 5.2 0.00 0.32 0.17 64 1011.3
20260507164549 56 130 1.7 4.3 0.00 0.32 0.17 66 1011.5
20260507164049 56 146 0.9 2.6 0.00 0.32 0.17 67 1011.7
20260507163549 57 75 0.9 2.6 0.00 0.32 0.17 61 1011.6
20260507163049 57 140 0.9 2.6 0.00 0.32 0.17 64 1011.6
20260507162549 56 136 0.9 3.5 0.00 0.32 0.17 62 1011.7
20260507162049 56 92 1.7 2.6 0.00 0.32 0.17 61 1011.5
20260507161549 56 159 1.7 2.6 0.00 0.32 0.17 58 1012.1
20260507161051 56 24 1.7 4.3 0.00 0.32 0.17 60 1011.9
20260507160549 56 42 1.7 7.8 0.00 0.32 0.17 60 1011.8
20260507160049 57 42 1.7 3.5 0.00 0.32 0.17 60 1011.9
20260507155549 57 286 2.6 6.1 0.00 0.32 0.17 60 1011.8
20260507155049 56 52 0.9 4.3 0.00 0.32 0.17 60 1011.8
20260507154549 56 13 0.9 1.7 0.00 0.32 0.17 59 1012.0
20260507154049 56 96 1.7 4.3 0.00 0.32 0.17 59 1011.8
20260507153549 56 76 0.9 1.7 0.00 0.32 0.17 66 1012.0
20260507153051 56 29 0.9 4.3 0.00 0.32 0.17 62 1011.8
20260507152549 55 306 0.9 4.3 0.00 0.32 0.17 62 1011.8
20260507152049 55 85 0.9 2.6 0.00 0.32 0.17 64 1012.0
20260507151549 55 107 1.7 4.3 0.00 0.32 0.17 63 1012.1
20260507151049 54 343 0.9 3.5 0.00 0.32 0.17 66 1012.0
20260507150549 54 50 0.9 2.6 0.00 0.32 0.17 65 1012.1
20260507150049 54 14 0.9 2.6 0.00 0.32 0.17 66 1012.1
20260507145550 53 88 0.0 2.6 0.00 0.32 0.17 65 1012.2
20260507145052 53 13 0.9 1.7 0.00 0.32 0.17 67 1012.3
20260507144550 53 44 0.9 2.6 0.00 0.32 0.17 69 1012.4
20260507144050 53 48 1.7 3.5 0.00 0.32 0.17 68 1012.3
20260507143550 53 13 1.7 3.5 0.00 0.32 0.17 65 1012.4
20260507143050 53 24 1.7 2.6 0.00 0.32 0.17 68 1012.4
20260507142550 53 15 1.7 2.6 0.00 0.32 0.17 66 1012.5
20260507142050 53 28 1.7 4.3 0.00 0.32 0.17 65 1012.6
20260507141550 53 9 1.7 3.5 0.00 0.32 0.17 66 1012.7
20260507141052 53 13 1.7 4.3 0.00 0.32 0.17 66 1012.6
20260507140550 53 34 1.7 2.6 0.00 0.32 0.17 68 1012.6
20260507140050 53 5 0.9 3.5 0.00 0.32 0.17 68 1012.8
20260507135550 53 45 1.7 2.6 0.00 0.38 0.17 68 1012.6
20260507135050 53 5 1.7 4.3 0.00 0.38 0.17 69 1012.6
20260507134550 52 69 1.7 3.5 0.00 0.38 0.17 70 1012.8
20260507134050 53 0 2.6 3.5 0.00 0.38 0.17 70 1012.8
20260507133550 52 11 2.6 5.2 0.00 0.38 0.17 69 1012.8
20260507133052 52 333 2.6 6.1 0.00 0.38 0.17 71 1012.9
20260507132550 52 51 3.5 7.0 0.00 0.38 0.17 71 1012.8
20260507132050 53 9 2.6 7.8 0.00 0.38 0.17 71 1012.9
20260507131550 53 334 1.7 5.2 0.00 0.38 0.17 71 1012.9
20260507131050 53 344 2.6 4.3 0.00 0.38 0.17 73 1013.0
20260507130550 53 31 2.6 3.5 0.00 0.38 0.17 72 1012.7
20260507130050 53 47 2.6 3.5 0.00 0.38 0.17 71 1012.7
20260507125550 53 32 1.7 3.5 0.00 0.46 0.17 75 1012.7
20260507125052 53 34 1.7 3.5 0.00 0.46 0.17 77 1012.6
20260507124550 53 22 1.7 4.3 0.00 0.46 0.17 77 1012.6
20260507124050 53 9 2.6 3.5 0.00 0.46 0.17 78 1012.7
20260507123550 53 26 2.6 6.1 0.00 0.46 0.17 78 1012.6
20260507123050 53 341 1.7 5.2 0.00 0.46 0.17 79 1012.6
20260507122550 53 25 0.9 2.6 0.00 0.46 0.17 80 1012.4
20260507122050 53 30 0.9 3.5 0.00 0.46 0.17 80 1012.6
20260507121550 53 14 1.7 2.6 0.00 0.46 0.17 79 1012.5
20260507121052 53 355 2.6 5.2 0.00 0.46 0.17 80 1012.3
20260507120550 53 5 2.6 4.3 0.00 0.46 0.17 81 1012.3
20260507120050 53 331 2.6 7.8 0.00 0.46 0.17 80 1012.3
20260507115550 53 24 1.7 2.6 0.00 0.58 0.17 82 1012.2
20260507115050 53 5 1.7 3.5 0.00 0.58 0.17 81 1012.2
20260507114550 53 10 0.9 2.6 0.00 0.58 0.17 82 1012.3
20260507114050 53 17 0.9 1.7 0.00 0.58 0.17 81 1012.4
20260507113550 53 44 1.7 2.6 0.00 0.58 0.17 81 1012.3
20260507113052 53 32 1.7 2.6 0.00 0.58 0.17 81 1012.2
20260507112550 53 355 0.9 2.6 0.00 0.58 0.17 82 1012.1
20260507112050 52 21 0.9 2.6 0.00 0.58 0.17 81 1012.0
20260507111550 52 26 0.9 2.6 0.00 0.58 0.17 81 1011.9
20260507111052 52 20 0.9 3.5 0.00 0.58 0.17 83 1011.8
20260507110550 52 80 0.9 1.7 0.00 0.58 0.17 83 1011.9
20260507110050 52 50 1.7 3.5 0.00 0.58 0.17 83 1011.9
20260507105550 52 13 0.9 1.7 0.00 0.60 0.17 85 1011.9
20260507105050 52 67 0.9 1.7 0.00 0.60 0.17 85 1011.9
20260507104550 52 36 1.7 3.5 0.00 0.60 0.17 88 1011.7
20260507104050 52 19 0.9 3.5 0.00 0.60 0.17 89 1011.8
20260507103550 52 50 0.9 1.7 0.00 0.60 0.17 89 1011.8
20260507103052 52 17 0.9 2.6 0.00 0.60 0.17 89 1011.8
20260507102550 52 40 0.9 0.9 0.00 0.60 0.17 90 1011.7
20260507102050 52 343 0.9 1.7 0.00 0.60 0.17 92 1011.7
20260507101550 52 9 0.9 1.7 0.00 0.60 0.17 92 1011.6
20260507101050 52 24 0.0 0.9 0.00 0.60 0.17 92 1011.6
20260507100550 52 73 0.0 1.7 0.00 0.60 0.17 92 1011.7
20260507100050 52 74 0.0 0.9 0.00 0.60 0.17 92 1011.5
20260507095550 52 74 0.0 0.9 0.00 0.60 0.17 92 1011.5
20260507095052 52 75 0.0 0.9 0.00 0.60 0.17 93 1011.4
20260507094550 52 74 0.0 0.0 0.00 0.60 0.17 93 1011.4
20260507094050 52 74 0.0 1.7 0.00 0.60 0.17 93 1011.4
20260507093550 52 74 0.0 0.9 0.00 0.60 0.17 93 1011.4
20260507093050 52 74 0.0 0.0 0.00 0.60 0.17 92 1011.3
20260507092550 52 75 0.0 1.7 0.00 0.60 0.17 93 1011.4
20260507092050 52 74 0.0 0.0 0.00 0.60 0.17 92 1011.5
20260507091550 52 74 0.0 0.0 0.00 0.60 0.17 92 1011.3
20260507091052 52 74 0.0 1.7 0.00 0.60 0.17 92 1011.3
20260507090550 52 74 0.0 0.9 0.00 0.60 0.17 91 1011.1
20260507090050 52 82 0.0 1.7 0.00 0.60 0.17 91 1011.0
20260507085550 52 97 0.0 0.9 0.00 0.60 0.17 91 1011.0
20260507085050 53 97 0.0 1.7 0.00 0.60 0.17 90 1011.1
20260507084550 53 18 0.9 1.7 0.00 0.60 0.17 90 1011.0
20260507084050 53 24 0.9 2.6 0.00 0.60 0.17 90 1011.2
20260507083550 53 10 0.9 2.6 0.00 0.60 0.17 91 1011.2
20260507083052 53 34 0.0 0.9 0.00 0.60 0.17 91 1011.3
20260507082550 53 34 0.9 0.9 0.00 0.60 0.17 90 1011.1
20260507082050 53 15 0.9 1.7 0.00 0.60 0.17 90 1011.1
20260507081550 53 19 0.9 2.6 0.00 0.60 0.17 90 1011.2
20260507081050 53 0 0.9 2.6 0.00 0.60 0.17 90 1011.1
20260507080550 53 24 0.9 1.7 0.00 0.60 0.17 91 1011.1
20260507080050 53 0 0.9 2.6 0.00 0.60 0.17 91 1011.1
20260507075550 53 332 0.9 2.6 0.00 0.60 0.17 91 1011.2
20260507075052 53 61 0.0 1.7 0.00 0.60 0.17 91 1011.0
20260507074550 53 73 0.9 1.7 0.00 0.60 0.17 91 1010.6
20260507074050 53 104 0.9 1.7 0.01 0.60 0.17 90 1010.5
20260507073550 53 44 1.7 2.6 0.01 0.60 0.17 90 1010.5
20260507073050 53 11 1.7 2.6 0.01 0.60 0.17 90 1010.5
20260507072550 53 15 0.9 4.3 0.01 0.60 0.17 91 1010.6
20260507072050 53 19 0.9 4.3 0.01 0.60 0.17 91 1010.6
20260507071550 53 37 1.7 2.6 0.01 0.60 0.17 91 1010.5
20260507071052 53 13 2.6 4.3 0.01 0.60 0.17 91 1010.4
20260507070550 53 30 1.7 7.0 0.01 0.60 0.17 91 1010.4
20260507070050 53 13 0.9 2.6 0.01 0.60 0.17 91 1010.5
20260507065550 53 348 0.9 2.6 0.01 0.60 0.17 91 1010.7
20260507065050 54 355 1.7 2.6 0.01 0.60 0.17 91 1010.6
20260507064550 54 5 2.6 4.3 0.01 0.60 0.17 91 1010.5
20260507064050 54 344 1.7 3.5 0.00 0.59 0.16 91 1010.6
20260507063550 54 355 1.7 4.3 0.00 0.59 0.16 91 1010.4
20260507063052 54 45 2.6 7.0 0.00 0.59 0.16 91 1010.4
20260507062550 54 5 2.6 5.2 0.00 0.59 0.16 91 1010.6
20260507062050 54 351 3.5 4.3 0.00 0.59 0.16 91 1010.5
20260507061550 54 0 3.5 9.6 0.01 0.59 0.16 91 1010.6
20260507061052 55 9 3.5 7.8 0.01 0.59 0.16 91 1010.7
20260507060550 55 320 4.3 8.7 0.02 0.59 0.16 91 1010.9
20260507060050 55 340 5.2 7.8 0.02 0.59 0.16 92 1010.9
20260507055550 55 31 5.2 9.6 0.03 0.59 0.16 92 1010.5
20260507055050 55 34 4.3 7.8 0.04 0.59 0.16 92 1010.4
20260507054550 55 24 3.5 9.6 0.06 0.59 0.16 93 1010.5
20260507054050 55 9 3.5 6.1 0.07 0.59 0.16 93 1010.4
20260507053550 55 5 3.5 7.8 0.08 0.59 0.16 93 1010.1
20260507053052 56 28 1.7 7.0 0.09 0.59 0.16 93 1010.1
20260507052550 56 13 0.9 2.6 0.09 0.59 0.16 93 1010.3
20260507052050 56 40 0.9 2.6 0.09 0.59 0.16 93 1010.4
20260507051550 56 30 1.7 4.3 0.09 0.58 0.15 93 1010.3
20260507051050 55 329 1.7 4.3 0.10 0.58 0.15 93 1010.5
20260507050550 55 107 0.9 2.6 0.10 0.57 0.14 92 1009.8
20260507050050 55 86 0.9 3.5 0.12 0.57 0.14 92 1009.9
20260507045550 56 84 1.7 1.7 0.13 0.56 0.13 92 1010.0
20260507045052 56 35 2.6 5.2 0.14 0.55 0.12 91 1010.4
20260507044550 56 12 1.7 6.1 0.14 0.53 0.10 91 1010.4
20260507044050 56 340 0.9 3.5 0.16 0.52 0.09 91 1010.4
20260507043550 56 349 1.7 3.5 0.16 0.51 0.08 91 1010.1
20260507043050 57 10 2.6 2.6 0.15 0.50 0.07 91 1010.1
20260507042550 57 0 2.6 7.0 0.15 0.50 0.07 92 1010.2
20260507042050 57 30 1.7 5.2 0.16 0.50 0.07 92 1010.2
20260507041550 57 22 0.9 2.6 0.15 0.49 0.06 92 1010.4
20260507041052 57 351 0.9 2.6 0.14 0.48 0.05 92 1010.5
20260507040550 57 355 0.9 2.6 0.13 0.47 0.04 91 1010.6
20260507040050 57 355 0.9 1.7 0.11 0.45 0.02 91 1010.6
20260507035550 58 312 1.7 3.5 0.09 0.43 0.00 90 1010.9
20260507035050 58 328 2.6 5.2 0.07 0.41 0.41 89 1010.6
20260507034550 58 280 1.7 4.3 0.05 0.39 0.39 88 1010.5
20260507034050 59 65 3.5 4.3 0.02 0.36 0.36 88 1009.8
20260507033550 59 5 5.2 10.4 0.01 0.35 0.35 88 1009.6
20260507033052 60 0 5.2 8.7 0.01 0.35 0.35 89 1009.9
20260507032550 61 344 2.6 8.7 0.01 0.35 0.35 92 1009.7
20260507032051 61 350 1.7 3.5 0.00 0.34 0.34 92 1009.8
20260507031550 62 355 0.9 1.7 0.00 0.34 0.34 92 1010.0
20260507031050 61 159 0.0 0.9 0.00 0.34 0.34 92 1010.0
20260507030550 62 199 0.9 1.7 0.00 0.34 0.34 92 1009.8
20260507030050 62 282 1.7 3.5 0.00 0.34 0.34 92 1009.9
20260507025550 62 9 2.6 4.3 0.00 0.34 0.34 92 1009.7
20260507025052 62 355 1.7 3.5 0.00 0.34 0.34 93 1009.7
20260507024550 62 346 1.7 2.6 0.00 0.34 0.34 93 1009.5
20260507024050 62 293 1.7 2.6 0.00 0.34 0.34 93 1009.4
20260507023550 62 351 0.9 2.6 0.00 0.34 0.34 93 1009.0
20260507023050 62 314 0.0 1.7 0.00 0.34 0.34 93 1009.1
20260507022550 62 314 0.9 1.7 0.00 0.34 0.34 92 1009.4
20260507022050 63 322 0.9 2.6 0.00 0.34 0.34 92 1009.4
20260507021550 63 335 0.9 1.7 0.00 0.34 0.34 92 1009.3
20260507021052 63 335 1.7 3.5 0.01 0.34 0.34 92 1009.2
20260507020550 63 346 1.7 3.5 0.03 0.34 0.34 93 1009.0
20260507020050 63 344 1.7 3.5 0.03 0.34 0.34 93 1009.0
20260507015550 63 24 0.9 2.6 0.05 0.34 0.34 93 1008.8
20260507015050 63 24 0.9 1.7 0.06 0.34 0.34 93 1008.6
20260507014550 64 5 0.0 0.9 0.06 0.34 0.34 93 1008.7
20260507014050 64 317 0.9 1.7 0.06 0.34 0.34 92 1008.9
20260507013550 64 53 0.9 2.6 0.06 0.34 0.34 92 1009.0
20260507013053 64 38 0.9 2.6 0.06 0.34 0.34 92 1009.2
20260507012550 64 355 0.9 2.6 0.06 0.34 0.34 92 1009.2
20260507012050 64 9 1.7 3.5 0.06 0.34 0.34 92 1009.1
20260507011550 65 304 1.7 3.5 0.06 0.34 0.34 91 1009.2
20260507011050 65 19 2.6 3.5 0.05 0.33 0.33 91 1009.3
20260507010550 65 14 2.6 4.3 0.03 0.31 0.31 91 1009.3
20260507010050 65 355 2.6 5.2 0.03 0.31 0.31 91 1009.4
20260507005550 65 345 1.7 4.3 0.01 0.29 0.29 90 1009.4
20260507005052 65 0 0.9 2.6 0.00 0.28 0.28 90 1009.3
20260507004550 65 355 0.0 0.0 0.00 0.28 0.28 90 1009.3
20260507004051 65 355 0.0 0.0 0.00 0.28 0.28 88 1009.0
20260507003550 66 355 0.0 0.0 0.00 0.28 0.28 88 1008.8
20260507003052 66 355 0.0 0.0 0.00 0.28 0.28 88 1008.8
20260507002550 66 234 0.0 0.0 0.00 0.28 0.28 88 1008.7
20260507002051 66 234 0.0 0.0 0.00 0.28 0.28 86 1008.4
20260507001551 67 234 0.0 0.9 0.00 0.28 0.28 84 1008.8
20260507001051 67 234 0.0 1.7 0.00 0.28 0.28 82 1008.5
20260507000550 68 235 0.9 1.7 0.00 0.28 0.28 80 1008.7
20260507000051 68 192 1.7 5.2 0.00 0.28 0.28 79 1008.7
20260506235551 68 196 1.7 3.5 0.00 0.28 0.28 79 1008.4
20260506235053 68 227 2.6 5.2 0.00 0.28 0.28 79 1008.2
20260506234551 68 242 1.7 6.1 0.00 0.28 0.28 79 1008.2
20260506234051 68 209 0.9 3.5 0.00 0.28 0.28 79 1008.1
20260506233551 69 253 1.7 3.5 0.00 0.28 0.28 78 1008.2
20260506233051 69 211 2.6 7.8 0.00 0.28 0.28 78 1008.0
20260506232551 69 180 2.6 6.1 0.00 0.28 0.28 78 1007.9
20260506232051 69 198 2.6 8.7 0.00 0.28 0.28 78 1007.7
20260506231551 69 178 1.7 5.2 0.00 0.28 0.28 78 1007.6
20260506231053 69 188 1.7 4.3 0.00 0.28 0.28 78 1007.7
20260506230551 69 180 0.9 5.2 0.00 0.28 0.28 78 1007.7
20260506230051 69 186 1.7 3.5 0.00 0.28 0.28 78 1007.8
20260506225551 69 180 2.6 6.1 0.00 0.28 0.28 77 1007.8
20260506225051 69 205 1.7 5.2 0.00 0.28 0.28 77 1007.8
20260506224551 69 202 1.7 5.2 0.00 0.28 0.28 77 1007.7
20260506224051 69 166 1.7 5.2 0.00 0.28 0.28 77 1007.7
20260506223551 69 164 1.7 5.2 0.00 0.28 0.28 77 1007.8
20260506223053 70 182 3.5 7.8 0.00 0.28 0.28 77 1007.6
20260506222551 70 165 3.5 7.8 0.00 0.28 0.28 77 1007.6
20260506222051 70 162 2.6 7.0 0.00 0.28 0.28 77 1007.6
20260506221551 70 207 1.7 8.7 0.00 0.28 0.28 76 1007.7
20260506221051 70 183 1.7 4.3 0.00 0.28 0.28 77 1007.9
20260506220551 69 218 2.6 7.8 0.00 0.28 0.28 77 1007.8
20260506220051 69 190 2.6 7.8 0.00 0.28 0.28 77 1007.6
20260506215551 69 209 2.6 7.8 0.00 0.28 0.28 77 1007.6
20260506215053 69 197 1.7 5.2 0.00 0.28 0.28 78 1007.7
20260506214551 69 206 1.7 5.2 0.00 0.28 0.28 77 1007.7
20260506214051 69 169 1.7 7.0 0.00 0.28 0.28 78 1007.8
20260506213551 69 187 2.6 6.1 0.00 0.28 0.28 77 1007.7
20260506213051 69 192 2.6 6.1 0.00 0.28 0.28 78 1007.6
20260506212551 69 207 3.5 6.1 0.00 0.28 0.28 78 1007.6
20260506212051 69 191 4.3 11.3 0.00 0.28 0.28 77 1007.6
20260506211551 69 178 3.5 5.2 0.00 0.28 0.28 78 1007.6
20260506211053 68 193 4.3 9.6 0.00 0.28 0.28 78 1007.6
20260506210551 68 184 4.3 9.6 0.00 0.28 0.28 78 1007.5
20260506210051 68 171 5.2 9.6 0.00 0.28 0.28 78 1007.5
20260506205551 68 175 4.3 12.2 0.00 0.28 0.28 79 1007.5
20260506205051 68 169 3.5 8.7 0.00 0.28 0.28 79 1007.4
20260506204551 68 188 4.3 13.0 0.00 0.28 0.28 79 1007.5
20260506204051 68 189 4.3 11.3 0.00 0.28 0.28 79 1007.4
20260506203551 68 205 4.3 10.4 0.00 0.28 0.28 79 1007.2
20260506203053 68 197 5.2 10.4 0.00 0.28 0.28 78 1007.3
20260506202551 68 192 5.2 12.2 0.00 0.28 0.28 79 1007.3
20260506202051 68 221 5.2 10.4 0.00 0.28 0.28 79 1007.3
20260506201551 68 201 4.3 10.4 0.00 0.28 0.28 79 1007.3
20260506201051 69 231 4.3 9.6 0.00 0.28 0.28 79 1007.3
20260506200551 68 241 3.5 9.6 0.00 0.28 0.28 79 1007.3
20260506200051 68 167 3.5 7.8 0.00 0.28 0.28 79 1007.4
20260506195551 68 248 4.3 13.0 0.00 0.28 0.28 79 1007.4
20260506195053 68 184 6.1 9.6 0.00 0.28 0.28 80 1007.3
20260506194551 68 205 7.0 16.5 0.00 0.28 0.28 80 1007.3
20260506194051 68 184 6.1 15.6 0.00 0.28 0.28 80 1007.4
20260506193551 68 187 5.2 12.2 0.00 0.28 0.28 79 1007.4
20260506193053 68 221 5.2 11.3 0.00 0.28 0.28 80 1007.5
20260506192551 67 161 5.2 13.0 0.00 0.28 0.28 81 1007.6
20260506192051 67 182 5.2 12.2 0.00 0.28 0.28 80 1007.7
20260506191551 67 190 4.3 11.3 0.00 0.28 0.28 82 1007.8
20260506191051 66 183 5.2 10.4 0.00 0.28 0.28 82 1007.8
20260506190551 66 212 5.2 10.4 0.00 0.28 0.28 82 1007.9
20260506190051 66 193 5.2 8.7 0.00 0.28 0.28 82 1007.9
20260506185551 66 170 6.1 9.6 0.00 0.28 0.28 82 1008.0
20260506185053 66 182 6.1 13.9 0.00 0.28 0.28 83 1007.9
20260506184551 66 205 6.1 17.4 0.00 0.28 0.28 82 1008.0
20260506184051 66 213 6.1 12.2 0.00 0.28 0.28 82 1008.3
20260506183551 66 186 5.2 13.0 0.00 0.28 0.28 82 1008.5
20260506183051 66 216 4.3 7.0 0.00 0.28 0.28 83 1008.6
20260506182551 66 196 4.3 11.3 0.00 0.28 0.28 83 1008.4
20260506182051 66 188 4.3 9.6 0.00 0.28 0.28 82 1008.2
20260506181551 65 189 3.5 13.0 0.00 0.28 0.28 83 1008.4
20260506181053 65 171 4.3 13.0 0.00 0.28 0.28 83 1008.3
20260506180551 65 161 4.3 9.6 0.00 0.28 0.28 83 1008.1
20260506180051 65 169 4.3 10.4 0.00 0.28 0.28 84 1008.4
20260506175551 65 186 5.2 10.4 0.00 0.28 0.28 83 1008.4
20260506175051 65 188 5.2 11.3 0.00 0.28 0.28 84 1008.4